CW5920 Weather Reports


time (UTC)temp
F
wind
direction
speed
knots
gust
knots
rain 1hr
in
rain 24hr
in
rain mn
in
humidity
%
barometer
mb
20260507032517 59 338 1.7 5.2 0.00 0.24 0.24 88 1016.4
20260507031517 59 338 1.7 5.2 0.00 0.24 0.24 89 1016.5
20260507030537 59 338 2.6 7.0 0.00 0.24 0.24 89 1016.2
20260507025517 59 315 2.6 6.1 0.00 0.24 0.24 90 1016.2
20260507024517 59 338 2.6 4.3 0.00 0.24 0.24 90 1016.2
20260507023517 59 0.0 3.5 0.00 0.24 0.24 90 1016.0
20260507022517 59 315 2.6 4.3 0.00 0.24 0.24 91 1015.7
20260507021517 59 338 1.7 5.2 0.00 0.24 0.24 91 1015.4
20260507020517 59 338 2.6 7.0 0.00 0.24 0.24 91 1015.2
20260507015537 59 0.0 0.0 0.00 0.24 0.24 91 1015.0
20260507014517 59 0.0 0.0 0.00 0.24 0.24 90 1014.7
20260507013637 59 0.0 0.0 0.00 0.24 0.24 90 1014.5
20260507012517 59 0.0 0.0 0.00 0.24 0.24 90 1014.3
20260507011517 60 0.0 1.7 0.00 0.24 0.24 90 1014.1
20260507010557 60 0.0 0.0 0.00 0.24 0.24 90 1014.0
20260507005517 60 0.0 0.0 0.00 0.24 0.24 90 1013.9
20260507004517 60 0.0 0.0 0.00 0.24 0.24 90 1013.9
20260507003517 60 0.0 0.0 0.00 0.24 0.24 90 1013.8
20260507002517 60 68 0.9 3.5 0.00 0.24 0.24 90 1013.9
20260507001517 60 23 0.9 3.5 0.00 0.24 0.24 90 1013.7
20260507000517 60 0.0 1.7 0.00 0.24 0.24 90 1013.7
20260506235517 60 0 0.9 2.6 0.00 0.24 0.24 90 1013.4
20260506234517 60 0.0 1.7 0.00 0.24 0.24 89 1013.4
20260506233517 60 0.0 2.6 0.00 0.24 0.24 89 1013.4
20260506232517 60 23 0.9 2.6 0.15 0.24 0.24 89 1013.2
20260506231517 60 23 0.9 4.3 0.17 0.24 0.24 88 1013.2
20260506230517 60 23 0.9 3.5 0.17 0.24 0.24 87 1013.1
20260506225517 60 0 0.9 1.7 0.17 0.24 0.24 87 1013.0
20260506224517 61 338 0.9 2.6 0.17 0.24 0.24 84 1013.2
20260506223517 61 293 0.9 4.3 0.17 0.24 0.24 82 1013.4
20260506222537 62 293 4.3 7.8 0.02 0.09 0.09 79 1013.1
20260506221517 63 293 3.5 7.8 0.00 0.07 0.07 77 1013.4
20260506220517 63 315 4.3 9.6 0.00 0.07 0.07 75 1012.7
20260506215517 63 293 5.2 8.7 0.00 0.07 0.07 75 1013.0
20260506214517 63 315 3.5 10.4 0.00 0.07 0.07 75 1013.2
20260506213516 63 315 4.3 8.7 0.00 0.07 0.07 75 1013.0
20260506212517 62 293 4.3 8.7 0.00 0.07 0.07 75 1013.2
20260506211517 62 293 2.6 7.8 0.00 0.07 0.07 76 1013.1
20260506210517 62 315 3.5 7.8 0.00 0.07 0.07 76 1012.8
20260506205517 62 293 4.3 9.6 0.00 0.07 0.07 76 1013.1
20260506204517 62 293 2.6 7.8 0.00 0.07 0.07 78 1013.2
20260506203517 61 315 2.6 6.1 0.00 0.07 0.07 79 1013.2
20260506202517 61 315 3.5 7.8 0.00 0.07 0.07 79 1013.4
20260506201517 60 293 5.2 10.4 0.00 0.07 0.07 79 1013.4
20260506200516 60 293 5.2 10.4 0.00 0.07 0.07 79 1013.6
20260506195517 60 315 3.5 8.7 0.00 0.07 0.07 82 1013.7
20260506194517 59 315 1.7 4.3 0.00 0.07 0.07 83 1013.9
20260506193517 58 315 5.2 10.4 0.00 0.07 0.07 83 1014.0
20260506192517 58 270 3.5 8.7 0.00 0.07 0.07 84 1014.2
20260506191537 58 315 2.6 7.8 0.00 0.07 0.07 86 1014.0
20260506190517 56 315 4.3 8.7 0.00 0.07 0.07 86 1014.2
20260506185517 56 293 2.6 7.8 0.00 0.07 0.07 86 1014.4
20260506184517 56 270 3.5 7.0 0.00 0.07 0.07 87 1014.5
20260506183517 55 293 2.6 9.6 0.00 0.07 0.07 87 1014.6
20260506182517 55 270 1.7 5.2 0.00 0.07 0.07 87 1014.8
20260506181516 55 315 1.7 7.8 0.00 0.07 0.07 88 1014.3
20260506180517 55 315 4.3 10.4 0.00 0.07 0.07 89 1013.7
20260506175516 55 293 9.6 13.9 0.00 0.07 0.07 89 1013.0
20260506174517 55 315 7.8 12.2 0.00 0.07 0.07 90 1012.9
20260506173516 54 315 7.8 13.0 0.00 0.07 0.07 90 1012.9
20260506172516 55 315 7.0 13.9 0.00 0.07 0.07 91 1013.2
20260506171517 54 315 5.2 9.6 0.00 0.07 0.07 91 1013.8
20260506170517 54 315 4.3 7.8 0.00 0.07 0.07 91 1013.7
20260506165516 54 315 4.3 8.7 0.00 0.07 0.07 91 1013.7
20260506164517 54 315 5.2 10.4 0.00 0.07 0.07 91 1014.0
20260506163517 54 315 4.3 9.6 0.00 0.07 0.07 91 1013.8
20260506162536 54 315 6.1 11.3 0.00 0.07 0.07 91 1013.4
20260506161517 54 315 5.2 12.2 0.00 0.07 0.07 92 1013.6
20260506160516 54 315 6.1 11.3 0.00 0.07 0.07 92 1013.3
20260506155517 54 315 5.2 9.6 0.00 0.07 0.07 92 1013.5
20260506154516 54 338 2.6 7.0 0.02 0.07 0.07 91 1013.4
20260506153536 53 315 3.5 9.6 0.07 0.07 0.07 91 1013.7
20260506152517 53 315 5.2 13.0 0.07 0.07 0.07 91 1013.0
20260506151516 53 315 2.6 7.8 0.07 0.07 0.07 90 1013.6
20260506150517 53 315 2.6 8.7 0.07 0.07 0.07 89 1014.1
20260506145537 53 293 4.3 9.6 0.07 0.07 0.07 88 1014.8
20260506144516 53 315 4.3 10.4 0.05 0.05 0.05 87 1014.1
20260506143536 53 293 0.9 7.8 0.00 0.00 0.00 86 1015.9
20260506142516 53 293 3.5 7.8 0.00 0.00 0.00 86 1015.4
20260506141516 53 293 7.8 13.9 0.00 0.00 0.00 85 1013.8
20260506140517 54 293 7.0 11.3 0.00 0.00 0.00 85 1013.3
20260506135516 54 293 5.2 13.0 0.00 0.00 0.00 84 1013.8
20260506134517 54 293 7.0 13.0 0.00 0.00 0.00 84 1013.6
20260506133517 54 315 7.8 13.0 0.00 0.00 0.00 83 1013.5
20260506132517 55 293 7.8 12.2 0.00 0.00 0.00 82 1013.2
20260506131516 55 293 7.0 13.0 0.00 0.00 0.00 82 1012.9
20260506130516 55 315 7.0 12.2 0.00 0.00 0.00 81 1012.7
20260506125517 55 315 7.0 12.2 0.00 0.00 0.00 81 1012.4
20260506124516 55 315 7.8 13.0 0.00 0.00 0.00 80 1012.2
20260506123516 55 315 6.1 11.3 0.00 0.00 0.00 81 1012.3
20260506122517 56 315 7.8 13.9 0.00 0.00 0.00 81 1012.2
20260506121516 56 315 7.0 11.3 0.00 0.00 0.00 81 1012.1
20260506120516 56 315 7.0 13.9 0.00 0.00 0.00 80 1011.9
20260506115517 56 293 7.0 12.2 0.00 0.00 0.00 80 1012.1
20260506114516 56 315 8.7 13.9 0.00 0.00 0.00 80 1012.0
20260506113516 57 293 7.0 12.2 0.00 0.00 0.00 81 1011.8
20260506112516 57 315 6.1 12.2 0.00 0.00 0.00 81 1011.7
20260506111517 57 293 5.2 9.6 0.00 0.00 0.00 81 1011.6
20260506110537 57 315 6.1 10.4 0.00 0.00 0.00 81 1011.4
20260506105517 57 293 6.1 12.2 0.00 0.00 0.00 81 1011.6
20260506104536 57 315 7.8 12.2 0.00 0.00 0.00 81 1011.1
20260506103517 58 315 6.1 10.4 0.00 0.00 0.00 81 1011.0
20260506102516 58 315 5.2 8.7 0.00 0.00 0.00 81 1010.8
20260506101517 58 315 3.5 7.8 0.00 0.00 0.00 81 1010.6
20260506100516 58 293 5.2 8.7 0.00 0.00 0.00 80 1010.5
20260506095516 58 293 5.2 9.6 0.00 0.00 0.00 80 1010.4
20260506094536 59 293 7.0 12.2 0.00 0.00 0.00 80 1010.2
20260506093516 59 293 6.1 9.6 0.00 0.00 0.00 80 1010.1
20260506092536 59 293 5.2 8.7 0.00 0.00 0.00 80 1010.1
20260506091556 60 315 2.6 7.0 0.00 0.00 0.00 81 1010.0
20260506090517 60 315 4.3 9.6 0.00 0.00 0.00 81 1010.1
20260506085515 60 293 5.2 11.3 0.00 0.00 0.00 80 1009.9
20260506084515 60 315 3.5 7.8 0.00 0.00 0.00 80 1009.9
20260506083515 61 293 5.2 9.6 0.00 0.00 0.00 80 1009.9
20260506082515 61 293 6.1 8.7 0.00 0.00 0.00 80 1009.6
20260506081515 61 315 4.3 8.7 0.00 0.00 0.00 81 1009.6
20260506080515 61 315 5.2 9.6 0.00 0.00 0.00 81 1009.7
20260506072515 62 23 2.6 5.2 0.00 0.00 0.00 81 1009.3
20260506071515 62 338 3.5 5.2 0.00 0.00 0.00 81 1009.3
20260506070555 62 315 4.3 8.7 0.00 0.00 0.00 81 1009.1
20260506062515 62 338 5.2 9.6 0.00 0.00 0.00 81 1009.1
20260506061535 63 338 6.1 10.4 0.00 0.00 0.00 80 1009.1
20260506060515 63 315 6.1 11.3 0.00 0.00 0.00 80 1009.1
20260506050515 66 315 6.1 12.2 0.00 0.00 0.00 78 1009.2
20260506044515 67 315 7.0 11.3 0.00 0.00 0.00 77 1008.8
20260506043517 67 315 5.2 8.7 0.00 0.00 0.00 77 1008.9
20260506042517 67 293 5.2 8.7 0.00 0.00 0.00 77 1009.1
20260506041517 68 315 5.2 9.6 0.00 0.00 0.00 76 1009.0
20260506040557 68 315 7.0 10.4 0.00 0.00 0.00 75 1009.0
20260506035537 68 315 6.1 9.6 0.00 0.00 0.00 75 1008.8
20260506034537 69 293 5.2 10.4 0.00 0.00 0.00 74 1008.5
20260506033515 69 293 7.0 11.3 0.00 0.00 0.00 73 1008.5